{"data":{"norad_id":57310,"intl_designator":"2023-096W","name":"STARLINK-30184","alt_names":[],"object_type":"PAYLOAD","status":"ACTIVE","operator":null,"country":"US","launch_date":"2023-07-10","launch_site_code":"AFETR","launch_vehicle":null,"mission":null,"orbit_class":"UNKNOWN","rcs_meters":null,"size_class":null,"mass_kg":null,"dimensions":null,"purposes":["comms"],"wikipedia_slug":null,"has_3d_model":false,"image_url":null,"decayed_at":null,"tle_current":{"epoch":"2026-05-25T05:03:15.994656Z","epoch_age_seconds":53910,"freshness":"FRESH","line1":"1 57310U 23096W   26145.21060179  .00001070  00000+0  48400-4 0  9997","line2":"2 57310  43.0022 122.3149 0001178 266.2368  93.8349 15.27576448158752","mean_motion":15.27576448,"eccentricity":0.0001178,"inclination_deg":43.0022,"raan_deg":122.3149,"arg_perigee_deg":266.2368,"mean_anomaly_deg":93.8349,"bstar":4.84e-5,"rev_number":15875,"period_min":94.266967907586,"perigee_km":482.25148305106,"apogee_km":483.86798100112,"semimajor_km":6861.1967320261,"source":"CELESTRAK","updated_at":"2026-05-25T13:38:18.284782Z"}}}